sat.trackr.live / text

‹ back to catalog

STARLINK-30761

NORAD 58134 · 2023-162S

PAYLOAD ACTIVE UNKNOWN

§ Identity

Operator
Country
US
Launch date
2023-10-22
Launch site
AFETR
Launch vehicle
Mass (kg)
RCS (m²)

Purposes: comms

External: N2YO · Heavens-Above · Gunter

§ Orbital elements

Epoch: 2026-09-20T00:07:06.098880Z

Period
94.27 min
Inclination
43.0025°
Eccentricity
0.0001300
Mean motion
15.27570020 rev/d
Perigee alt
482.2 km
Apogee alt
484.0 km
Semi-major
6,861.2 km
B*
-8.4126e-6
RAAN
115.2062°
Arg perigee
272.7158°
Mean anomaly
87.3544°
Rev number
16,202

§ Raw data

STARLINK-307611 58134U 23162S   26263.00493170 -.00000493  00000+0 -84126-5 0  99912 58134  43.0025 115.2062 0001300 272.7158  87.3544 15.27570020162021

JSON: /api/v1/satellites/58134 · /tle

For live sub-satellite position, see the globe view (requires WebGL).

§ Visibility from observer

Set your observer location to see the next 7 days of passes ≥ 10°. The values pass through the URL so the page stays shareable.

No JS? Fill the form by hand. The geolocation button needs JavaScript.